When you browse on this site, cookies collect data to enhance your experience and personalize the content and advertising you see.
Visit our Privacy Policy to learn more. By continuing to use the site, you agree to this use of cookies and data.
  • In Slovakia
  • List of Countries
  • For 7 days
  • Water Temperature
  • Weather Map
  • Weather Widgets
  • user-avatar
    Login

    Hourly Weather Komorniki

    Today, 3 June, Wednesday

    Time Temperature Precipitation Wind Pressure Humidity
    00:00 +8°C° 0 mm 3 mps 745 mmHg 90%
    01:00 +9°C° 0 mm 3 mps 745 mmHg 90%
    02:00 +9°C° 0 mm 3 mps 745 mmHg 90%
    03:00 +9°C° 0.1 mm 3 mps 745 mmHg 91%
    04:00 +9°C° 0.1 mm 3 mps 744 mmHg 92%
    05:00 +9°C° 0.1 mm 3 mps 744 mmHg 94%
    06:00 +9°C° 0 mm 3 mps 744 mmHg 93%
    07:00 +10°C° 0 mm 3 mps 744 mmHg 91%
    08:00 +10°C° 0 mm 3 mps 744 mmHg 90%
    09:00 +11°C° 0.1 mm 3 mps 744 mmHg 86%
    10:00 +12°C° 0.1 mm 3 mps 744 mmHg 82%
    11:00 +13°C° 0.1 mm 3 mps 743 mmHg 78%
    12:00 +14°C° 0.4 mm 4 mps 743 mmHg 75%
    13:00 +15°C° 0.4 mm 4 mps 743 mmHg 72%
    14:00 +15°C° 0.4 mm 4 mps 743 mmHg 70%
    15:00 +15°C° 0.6 mm 4 mps 742 mmHg 72%
    16:00 +15°C° 0.6 mm 4 mps 742 mmHg 75%
    17:00 +15°C° 0.6 mm 4 mps 741 mmHg 78%
    18:00 +14°C° 0.4 mm 3 mps 741 mmHg 81%
    19:00 +13°C° 0.4 mm 3 mps 741 mmHg 85%
    20:00 +13°C° 0.4 mm 2 mps 741 mmHg 89%
    21:00 +12°C° 0.1 mm 2 mps 741 mmHg 90%
    22:00 +10°C° 0.1 mm 2 mps 741 mmHg 92%
    23:00 +9°C° 0.1 mm 2 mps 741 mmHg 94%

    Tomorrow, 4 June, Thursday

    Time Temperature Precipitation Wind Pressure Humidity
    00:00 +8°C° 0 mm 2 mps 741 mmHg 94%
    01:00 +7°C° 0 mm 2 mps 741 mmHg 95%
    02:00 +8°C° 0 mm 1 mps 740 mmHg 95%
    03:00 +8°C° 0 mm 1 mps 740 mmHg 95%
    04:00 +8°C° 0 mm 1 mps 740 mmHg 95%
    05:00 +8°C° 0 mm 1 mps 740 mmHg 95%
    06:00 +9°C° 0 mm 1 mps 740 mmHg 91%
    07:00 +11°C° 0 mm 1 mps 740 mmHg 87%
    08:00 +13°C° 0 mm 1 mps 740 mmHg 83%
    09:00 +15°C° 0.2 mm 1 mps 740 mmHg 77%
    10:00 +16°C° 0.2 mm 1 mps 740 mmHg 72%
    11:00 +16°C° 0.2 mm 0 mps 739 mmHg 67%
    12:00 +17°C° 0.5 mm 0 mps 739 mmHg 66%
    13:00 +19°C° 0.5 mm 1 mps 739 mmHg 66%
    14:00 +19°C° 0.5 mm 1 mps 739 mmHg 65%
    15:00 +19°C° 0.5 mm 1 mps 739 mmHg 65%
    16:00 +19°C° 0.5 mm 1 mps 739 mmHg 65%
    17:00 +17°C° 0.5 mm 0 mps 738 mmHg 64%
    18:00 +18°C° 0.1 mm 1 mps 738 mmHg 70%
    19:00 +16°C° 0.1 mm 1 mps 738 mmHg 75%
    20:00 +15°C° 0.1 mm 1 mps 738 mmHg 80%
    21:00 +13°C° 0 mm 1 mps 738 mmHg 82%
    22:00 +12°C° 0 mm 2 mps 738 mmHg 85%
    23:00 +10°C° 0 mm 2 mps 738 mmHg 87%

    Day after tomorrow, 5 June, Friday

    Time Temperature Precipitation Wind Pressure Humidity
    00:00 +10°C° 0 mm 2 mps 738 mmHg 89%
    01:00 +10°C° 0 mm 2 mps 738 mmHg 90%
    02:00 +9°C° 0 mm 2 mps 738 mmHg 91%
    03:00 +9°C° 0 mm 2 mps 738 mmHg 92%
    04:00 +9°C° 0 mm 3 mps 737 mmHg 92%
    05:00 +9°C° 0 mm 3 mps 737 mmHg 93%
    06:00 +11°C° 0 mm 3 mps 737 mmHg 88%
    07:00 +14°C° 0 mm 4 mps 736 mmHg 82%
    08:00 +16°C° 0 mm 5 mps 736 mmHg 77%
    09:00 +17°C° 0 mm 5 mps 736 mmHg 75%
    10:00 +19°C° 0 mm 6 mps 736 mmHg 74%
    11:00 +20°C° 0 mm 6 mps 735 mmHg 72%
    12:00 +21°C° 0.1 mm 6 mps 735 mmHg 73%
    13:00 +21°C° 0.1 mm 6 mps 735 mmHg 74%
    14:00 +21°C° 0.1 mm 5 mps 735 mmHg 76%
    15:00 +20°C° 0.9 mm 5 mps 735 mmHg 80%
    16:00 +20°C° 0.9 mm 5 mps 735 mmHg 85%
    17:00 +19°C° 0.9 mm 5 mps 735 mmHg 89%
    18:00 +17°C° 0.2 mm 5 mps 736 mmHg 90%
    19:00 +16°C° 0.2 mm 5 mps 736 mmHg 91%
    20:00 +14°C° 0.2 mm 5 mps 736 mmHg 92%
    21:00 +14°C° 0.1 mm 4 mps 737 mmHg 93%
    22:00 +13°C° 0.1 mm 3 mps 737 mmHg 94%
    23:00 +12°C° 0.1 mm 3 mps 738 mmHg 96%

    6 June, Saturday

    Time Temperature Precipitation Wind Pressure Humidity
    00:00 +12°C° 0.9 mm 2 mps 738 mmHg 96%
    01:00 +12°C° 0.9 mm 2 mps 739 mmHg 96%
    02:00 +10°C° 0.9 mm 2 mps 739 mmHg 97%
    03:00 +10°C° 0.2 mm 2 mps 739 mmHg 97%
    04:00 +10°C° 0.2 mm 2 mps 740 mmHg 97%
    05:00 +10°C° 0.2 mm 3 mps 740 mmHg 98%
    06:00 +11°C° 0 mm 4 mps 740 mmHg 93%
    07:00 +12°C° 0 mm 5 mps 741 mmHg 89%
    08:00 +14°C° 0 mm 7 mps 741 mmHg 85%
    09:00 +15°C° 0.1 mm 7 mps 742 mmHg 79%
    10:00 +16°C° 0.1 mm 8 mps 742 mmHg 74%
    11:00 +16°C° 0.1 mm 8 mps 743 mmHg 68%
    12:00 +17°C° 0.1 mm 8 mps 743 mmHg 65%
    13:00 +17°C° 0.1 mm 8 mps 744 mmHg 63%
    14:00 +18°C° 0.1 mm 8 mps 744 mmHg 60%
    15:00 +18°C° 0 mm 7 mps 744 mmHg 61%
    16:00 +19°C° 0 mm 6 mps 744 mmHg 62%
    17:00 +19°C° 0 mm 6 mps 745 mmHg 63%
    18:00 +17°C° 0 mm 5 mps 745 mmHg 69%
    19:00 +18°C° 0 mm 3 mps 745 mmHg 75%
    20:00 +17°C° 0 mm 2 mps 745 mmHg 81%
    21:00 +16°C° 0 mm 3 mps 745 mmHg 85%
    22:00 +14°C° 0 mm 3 mps 746 mmHg 88%
    23:00 +13°C° 0 mm 3 mps 746 mmHg 91%

    7 June, Sunday

    Time Temperature Precipitation Wind Pressure Humidity
    00:00 +13°C° 0 mm 3 mps 746 mmHg 92%
    01:00 +13°C° 0 mm 3 mps 747 mmHg 93%
    02:00 +12°C° 0 mm 3 mps 747 mmHg 94%
    03:00 +13°C° 0 mm 3 mps 747 mmHg 93%
    04:00 +13°C° 0 mm 3 mps 747 mmHg 91%
    05:00 +14°C° 0 mm 2 mps 748 mmHg 90%
    06:00 +16°C° 0 mm 3 mps 748 mmHg 86%
    07:00 +17°C° 0 mm 3 mps 748 mmHg 82%
    08:00 +19°C° 0 mm 4 mps 748 mmHg 78%
    09:00 +20°C° 0 mm 4 mps 748 mmHg 74%
    10:00 +21°C° 0 mm 4 mps 748 mmHg 69%
    11:00 +23°C° 0 mm 5 mps 748 mmHg 65%
    12:00 +23°C° 0.2 mm 5 mps 748 mmHg 66%
    13:00 +23°C° 0.2 mm 5 mps 748 mmHg 67%
    14:00 +23°C° 0.2 mm 5 mps 747 mmHg 68%
    15:00 +23°C° 0.3 mm 4 mps 747 mmHg 69%
    16:00 +22°C° 0.3 mm 4 mps 746 mmHg 69%
    17:00 +22°C° 0.3 mm 4 mps 746 mmHg 70%
    18:00 +21°C° 0 mm 3 mps 746 mmHg 75%
    19:00 +19°C° 0 mm 3 mps 745 mmHg 79%
    20:00 +18°C° 0 mm 2 mps 745 mmHg 84%
    21:00 +17°C° 0 mm 2 mps 745 mmHg 86%
    22:00 +16°C° 0 mm 2 mps 745 mmHg 89%
    23:00 +15°C° 0 mm 2 mps 745 mmHg 92%

    8 June, Monday

    Time Temperature Precipitation Wind Pressure Humidity
    00:00 +15°C° 0 mm 2 mps 745 mmHg 94%
    01:00 +15°C° 0 mm 1 mps 745 mmHg 95%
    02:00 +14°C° 0 mm 1 mps 745 mmHg 96%
    03:00 +15°C° 0 mm 1 mps 744 mmHg 96%
    04:00 +15°C° 0 mm 1 mps 744 mmHg 96%
    05:00 +15°C° 0 mm 1 mps 744 mmHg 97%
    06:00 +18°C° 0 mm 1 mps 745 mmHg 92%
    07:00 +19°C° 0 mm 1 mps 745 mmHg 87%
    08:00 +20°C° 0 mm 2 mps 745 mmHg 82%
    09:00 +21°C° 0.1 mm 2 mps 745 mmHg 78%
    10:00 +24°C° 0.1 mm 3 mps 745 mmHg 74%
    11:00 +25°C° 0.1 mm 3 mps 745 mmHg 70%
    12:00 +25°C° 0.8 mm 3 mps 745 mmHg 70%
    13:00 +26°C° 0.8 mm 3 mps 745 mmHg 70%
    14:00 +26°C° 0.8 mm 3 mps 745 mmHg 69%
    15:00 +26°C° 1.3 mm 3 mps 745 mmHg 73%
    16:00 +25°C° 1.3 mm 3 mps 745 mmHg 76%
    17:00 +25°C° 1.3 mm 3 mps 746 mmHg 80%
    18:00 +22°C° 0.2 mm 3 mps 746 mmHg 84%
    19:00 +21°C° 0.2 mm 3 mps 746 mmHg 88%
    20:00 +20°C° 0.2 mm 3 mps 746 mmHg 92%
    21:00 +19°C° 0 mm 3 mps 747 mmHg 93%
    22:00 +18°C° 0 mm 3 mps 747 mmHg 95%
    23:00 +17°C° 0 mm 3 mps 748 mmHg 97%
    Show more